Location: La Comballaz
(46.3780°N, 7.0817°E)
Time: 16:38:29
(UTC+00:00)

STARLINK-1224 - Pass Details

Date: 09 April 2020
Orbit: 549 x 550 km, 53.0° (Epoch: 29 May)

Event Time Altitude Azimuth Distance (km) Brightness Sun altitude
Rises 18:53:33 0° 296° (WNW) 2,733 9.6 -7.7°
Reaches altitude 10° 18:55:54 10° 304° (NW) 1,838 7.8 -8.1°
Maximum altitude 18:59:51 40° 15° (NNE) 828 4.6 -8.8°
Drops below altitude 10° 19:03:48 10° 86° (E) 1,835 5.7 -9.4°
Enters shadow 19:03:49 10° 86° (E) 1,841 5.7 -9.4°
